Location: Newark
(49.8969°N, 3.3422°E)
Time: 15:19:58
(UTC+00:00)

Tiros 1 - Pass Details

Date: 12 May 2021
Orbit: 630 x 664 km, 48.4° (Epoch: 11 June)

Event Time Altitude Azimuth Distance (km) Brightness Sun altitude
Exits shadow 00:40:32 25° 130° (SE) 1,320 8.5 -20.8°
Drops below altitude 10° 00:43:42 10° 90° (E) 2,065 9.9 -20.6°
Sets 00:46:20 0° 78° (ENE) 2,973 10.9 -20.5°
